Weather in Tavas

Turkey     37°34′29″N   29°03′54″E
temp.,
°C
wind,
m/s
gust,
m/s
humid.,
%
clouds,
%
prec.,
mm/h
press.,
hPa
HPBL,
m
16 september, thu
thu1600:00+14nne228096 0.0 101526
03:00+13ne227983 0.0 101553
06:00+13nne127786 0.0 101573
09:00+15nne3105873 0.0 10151093
12:00+17nne585677 0.0 10161131
15:00+19nne694661 0.0 10151483
18:00+19nne794214 0.0 10151689
21:00+16ene22561 0.0 101622
17 september, fri
fri1700:00+14ne22640 0.0 101618
03:00+13nne22690 0.0 101716
06:00+12ne22750 0.0 101614
09:00+16ne34560 0.0 1016409
12:00+21nne55270 0.0 10151170
15:00+22nne44220 0.0 10141537
18:00+22nne34170 0.0 10141400
21:00+17e11250 0.0 101511
18 september, sat
sat1800:00+16e11283 0.0 101511
03:00+15ne11341 0.0 101511
06:00+14ene11320 0.0 101511
09:00+21e11264 0.0 1015166
12:00+25nw13280 0.0 10141154
15:00+28w56242 0.0 10132304
18:00+27wnw56253 0.0 10121920
21:00+21sw22400 0.0 101411
19 september, sun
sun1900:00+20s22440 0.0 101511
03:00+18ssw11470 0.0 101511
06:00+18s11470 0.0 101511
09:00+24s23330 0.0 1015218
12:00+28w69250 0.0 10152711
15:00+29wnw811192 0.0 10143268
18:00+27wnw772424 0.0 10132347
21:00+21wsw22360 0.0 101513
20 september, mon
mon2000:00+20s22430 0.0 101611
03:00+19s124421 0.0 101611
06:00+18sse22430 0.0 101511
09:00+24ssw22320 0.0 1015205
12:00+28w59240 0.0 10152561
15:00+30wnw89190 0.0 10133097
18:00+28w88200 0.0 10131995
21:00+21sw22350 0.0 101513